McAlester, OK

9:30 AM CDT on June 22, 2017 (GMT -0500)
McAlester Regional

Weather History for KMLC - October, 2013

Change the Weather History Date:

Saturday, October 19, 2013

  Actual Average Record
Temperature  
Mean Temperature 50 °F -  
Max Temperature 63 °F 71 °F 91 °F (2005)
Min Temperature 37 °F 46 °F 27 °F (1989)
Degree Days  
Heating Degree Days 16    
Moisture  
Dew Point 38 °F    
Average Humidity 76    
Maximum Humidity 93    
Minimum Humidity 34    
Precipitation  
Precipitation 0.00 in - - ()
Sea Level Pressure  
Sea Level Pressure 30.13 in    
Wind  
Wind Speed 7 mph (NW)    
Max Wind Speed 14 mph    
Max Gust Speed 23 mph    
Visibility 10 miles    
Events Rain    
Averages and records for this station are not official NWS values.
T = Trace of Precipitation, MM = Missing Value Source: NWS Daily Summary

Daily Weather History Graph

Daily Weather History Graph

Search for Another Location

Airport or City:

Trip Planner

Search our weather history database for the weather conditions in past years. The results will help you decide how hot, cold, wet, or windy it might be!

Date:

Astronomy

Oct. 19, 2013 Rise Set
Actual Time 7:32 AM CDT 6:42 PM CDT
Civil Twilight 7:06 AM CDT 7:08 PM CDT
Nautical Twilight 6:37 AM CDT 7:37 PM CDT
Astronomical Twilight 6:08 AM CDT 8:07 PM CDT
Moon 7:14 PM CDT (10/19) 8:08 AM CDT (10/19)
Length of Visible Light 12h 01m
Length of Day
11h 10m
Waxing Gibbous, 99% of the Moon is Illuminated
Oct 19
Waxing Gibbous
Oct 26
Last Quarter
Nov 3
New
Nov 9
First Quarter
Nov 17
Full

Hourly Weather History & Observations

Time (CDT) Temp. Windchill Dew Point Humidity Pressure Visibility Wind Dir Wind Speed Gust Speed Precip Events Conditions
12:18 AM 44.6 °F 39.7 °F 42.8 °F 93% 30.14 in 10.0 mi NNW 9.2 mph - 0.00 in Rain Light Rain
12:26 AM 44.6 °F 39.2 °F 42.8 °F 93% 30.14 in 10.0 mi NNW 10.4 mph - 0.00 in Rain Light Rain
12:35 AM 44.6 °F 38.4 °F 42.8 °F 93% 30.14 in 10.0 mi NNW 12.7 mph 21.9 mph 0.00 in   Overcast
12:53 AM 43.0 °F 36.0 °F 41.0 °F 93% 30.14 in 10.0 mi NW 13.8 mph 23.0 mph 0.00 in   Overcast
1:53 AM 42.1 °F 35.7 °F 39.9 °F 92% 30.14 in 10.0 mi North 11.5 mph - N/A   Overcast
2:53 AM 41.0 °F 36.4 °F 39.0 °F 93% 30.14 in 10.0 mi NW 6.9 mph - N/A   Overcast
3:53 AM 39.9 °F 33.9 °F 37.0 °F 89% 30.15 in 10.0 mi NNW 9.2 mph - N/A   Overcast
4:53 AM 39.9 °F 35.1 °F 37.0 °F 89% 30.14 in 10.0 mi North 6.9 mph - N/A   Overcast
5:53 AM 39.0 °F 32.8 °F 36.0 °F 89% 30.17 in 10.0 mi NNW 9.2 mph - N/A   Overcast
6:00 AM 39.2 °F 35.0 °F 35.6 °F 87% 30.16 in 10.0 mi NNW 5.8 mph - N/A   Overcast
6:37 AM 39.2 °F 35.0 °F 35.6 °F 87% 30.17 in 10.0 mi NNW 5.8 mph - N/A   Overcast
6:53 AM 39.0 °F 34.8 °F 36.0 °F 89% 30.17 in 10.0 mi NNW 5.8 mph - N/A   Overcast
7:53 AM 37.9 °F 35.5 °F 35.1 °F 89% 30.18 in 10.0 mi WNW 3.5 mph - N/A   Overcast
8:53 AM 37.9 °F - 35.1 °F 89% 30.20 in 10.0 mi Calm Calm - N/A   Mostly Cloudy
9:00 AM 39.2 °F - 35.6 °F 87% 30.19 in 10.0 mi Calm Calm - N/A   Scattered Clouds
9:53 AM 42.1 °F 40.2 °F 36.0 °F 79% 30.21 in 10.0 mi NW 3.5 mph - N/A   Clear
10:53 AM 46.0 °F 44.8 °F 36.0 °F 68% 30.20 in 10.0 mi NW 3.5 mph - N/A   Mostly Cloudy
11:53 AM 51.1 °F - 36.0 °F 56% 30.19 in 10.0 mi Calm Calm - N/A   Partly Cloudy
12:53 PM 55.0 °F - 36.0 °F 49% 30.16 in 10.0 mi WSW 8.1 mph - N/A   Partly Cloudy
1:53 PM 57.9 °F - 34.0 °F 41% 30.13 in 10.0 mi NNW 4.6 mph - N/A   Partly Cloudy
2:53 PM 60.1 °F - 35.1 °F 39% 30.11 in 10.0 mi WNW 3.5 mph - N/A   Scattered Clouds
3:53 PM 61.0 °F - 33.1 °F 35% 30.09 in 10.0 mi West 5.8 mph - N/A   Scattered Clouds
4:53 PM 62.1 °F - 33.1 °F 34% 30.08 in 10.0 mi Variable 4.6 mph - N/A   Clear
5:53 PM 61.0 °F - 36.0 °F 39% 30.07 in 10.0 mi South 3.5 mph - N/A   Clear
6:53 PM 51.1 °F - 43.0 °F 74% 30.07 in 10.0 mi South 3.5 mph - N/A   Partly Cloudy
7:53 PM 46.9 °F - 43.0 °F 86% 30.07 in 10.0 mi Calm Calm - N/A   Clear
8:53 PM 44.1 °F - 42.1 °F 93% 30.07 in 10.0 mi Calm Calm - N/A   Partly Cloudy
9:53 PM 46.0 °F 43.9 °F 39.9 °F 79% 30.08 in 10.0 mi SSW 4.6 mph - N/A   Clear
10:53 PM 46.9 °F - 39.0 °F 74% 30.07 in 10.0 mi SSW 4.6 mph - N/A   Scattered Clouds
11:53 PM 45.0 °F - 39.0 °F 80% 30.07 in 10.0 mi Calm Calm - N/A   Clear